LUCAS (JDRS-1)

Last updated on Sun Jun 21 2026 00:03:08 GMT+0000 (Coordinated Universal Time)

1 47202U 20089A 26171.40996537 -.00000239 00000+0 00000+0 0 9997 2 47202 0.0494 274.3402 0002347 151.9999 80.6439 1.00269176 20458
UTC large
Height (km)
Speed (km/s)
/
Latitude / Longitude
Inclination (degrees)
Orbital Period (minutes)
Azimuth
Elevation
Range (km)
Doppler Factor

Next 0 passes for location: London (51.5072 / 0.1276)

No passes found over London.
LUCAS (JDRS-1)